#timestamp,LO_Frequency,Hit,Temp,Hum 
1480478415.8,286046979.5,N,0.0,0.0
1480478435.7,286046980.3,N,0.0,0.0
1480478455.5,286046980.4,N,0.0,0.0
1480478475.4,286046980.3,N,0.0,0.0
1480478495.2,286046982.0,N,0.0,0.0
1480478515.0,286046977.3,N,0.0,0.0
1480478515.9,286046977.3,N,0.0,0.0
1480478535.8,286046977.6,N,0.0,0.0
1480478555.6,286046978.0,N,0.0,0.0
1480478575.5,286046977.5,N,0.0,0.0
1480478595.3,286046978.7,N,0.0,0.0
1480478615.1,286046976.3,N,0.0,0.0
1480478635.9,286046976.0,N,0.0,0.0
1480478655.7,286046976.0,N,0.0,0.0
1480478675.6,286046976.4,N,0.0,0.0
1480478695.4,286046976.0,N,0.0,0.0
1480478715.2,286046976.1,N,0.0,0.0
1480478735.1,286046978.4,N,0.0,0.0
1480478736.0,286046978.4,N,0.0,0.0
1480478755.8,286046975.9,N,0.0,0.0
1480478775.7,286046977.2,N,0.0,0.0
1480478795.5,286046974.5,N,0.0,0.0
1480478815.3,286046974.4,N,0.0,0.0
1480478835.2,286046975.3,N,0.0,0.0
1480478855.9,286046975.2,N,0.0,0.0
1480478875.7,286046972.9,N,0.0,0.0
1480478895.6,286046975.4,N,0.0,0.0
1480478915.4,286046972.7,N,0.0,0.0
1480478935.3,286046973.2,N,0.0,0.0
1480478955.1,286046973.8,N,0.0,0.0
1480478956.0,286046973.8,N,0.0,0.0
1480478975.8,286046975.6,N,0.0,0.0
1480478995.7,286046973.2,N,0.0,0.0
1480479015.5,286046974.0,N,0.0,0.0
1480479035.4,286046971.2,N,0.0,0.0
1480479055.2,286046971.0,N,0.0,0.0
1480479075.0,286046972.1,N,0.0,0.0
1480479075.9,286046972.1,N,0.0,0.0
1480479095.8,286046971.9,N,0.0,0.0
1480479115.6,286046969.5,N,0.0,0.0
1480479135.5,286046969.6,N,0.0,0.0
1480479155.3,286046970.0,N,0.0,0.0
1480479175.1,286046969.8,N,0.0,0.0
1480479195.9,286046970.7,N,0.0,0.0
1480479215.7,286046970.3,N,0.0,0.0
1480479235.6,286046968.1,N,0.0,0.0
1480479255.4,286046967.8,N,0.0,0.0
1480479275.2,286046968.1,N,0.0,0.0
1480479295.1,286046970.3,N,0.0,0.0
1480479296.0,286046970.3,N,0.0,0.0
1480479315.8,286046969.0,N,0.0,0.0
1480479335.6,286046969.1,N,0.0,0.0
1480479355.5,286046966.5,N,0.0,0.0
1480479375.3,286046968.6,N,0.0,0.0
1480479395.2,286046968.6,N,0.0,0.0
1480479415.9,286046968.7,N,0.0,0.0
1480479435.7,286046966.3,N,0.0,0.0
1480479455.6,286046967.3,N,0.0,0.0
1480479475.4,286046965.3,N,0.0,0.0
1480479495.3,286046965.0,N,0.0,0.0
1480479515.1,286046967.1,N,0.0,0.0
1480479516.0,286046967.1,N,0.0,0.0
1480479535.8,286046967.2,N,0.0,0.0
1480479555.7,286046966.0,N,0.0,0.0
1480479575.5,286046963.0,N,0.0,0.0
1480479595.4,286046963.2,N,0.0,0.0
1480479615.2,286046963.7,N,0.0,0.0
1480479635.0,286046963.8,N,0.0,0.0
1480479635.9,286046963.8,N,0.0,0.0
1480479655.8,286046963.7,N,0.0,0.0
1480479675.6,286046961.4,N,0.0,0.0
1480479695.4,286046963.8,N,0.0,0.0
1480479715.3,286046961.3,N,0.0,0.0
1480479735.1,286046961.5,N,0.0,0.0
1480479755.9,286046961.9,N,0.0,0.0
1480479775.7,286046962.3,N,0.0,0.0
1480479795.5,286046959.9,N,0.0,0.0
1480479815.4,286046962.7,N,0.0,0.0
1480479835.2,286046962.4,N,0.0,0.0
1480479855.1,286046961.4,N,0.0,0.0
1480479856.0,286046961.4,N,0.0,0.0
1480479875.8,286046962.7,N,0.0,0.0
1480479895.6,286046960.4,N,0.0,0.0
1480479915.5,286046960.0,N,0.0,0.0
1480479935.3,286046960.4,N,0.0,0.0
1480479955.2,286046958.4,N,0.0,0.0
1480479975.9,286046961.2,N,0.0,0.0
1480479995.7,286046960.5,N,0.0,0.0
1480480015.6,286046960.3,N,0.0,0.0
1480480035.4,286046960.4,N,0.0,0.0
1480480055.2,286046958.7,N,0.0,0.0
1480480075.1,286046958.8,N,0.0,0.0
1480480076.0,286046958.8,N,0.0,0.0
1480480095.8,286046959.1,N,0.0,0.0
1480480115.7,286046959.5,N,0.0,0.0
1480480135.5,286046956.6,N,0.0,0.0
1480480155.3,286046956.5,N,0.0,0.0
1480480175.2,286046959.3,N,0.0,0.0
1480480195.0,286046957.4,N,0.0,0.0
1480480195.9,286046957.4,N,0.0,0.0
1480480215.8,286046957.5,N,0.0,0.0
1480480235.6,286046957.8,N,0.0,0.0
1480480255.4,286046957.6,N,0.0,0.0
1480480275.3,286046955.8,N,0.0,0.0
1480480295.1,286046956.0,N,0.0,0.0
1480480315.9,286046956.0,N,0.0,0.0
1480480335.7,286046955.9,N,0.0,0.0
1480480355.5,286046954.2,N,0.0,0.0
1480480375.4,286046953.7,N,0.0,0.0
1480480395.2,286046956.3,N,0.0,0.0
1480480415.0,286046955.8,N,0.0,0.0
1480480416.0,286046955.8,N,0.0,0.0
1480480435.8,286046955.9,N,0.0,0.0
1480480455.6,286046954.5,N,0.0,0.0
1480480475.5,286046954.6,N,0.0,0.0
1480480495.3,286046953.8,N,0.0,0.0
1480480515.1,286046954.8,N,0.0,0.0
1480480535.9,286046952.3,N,0.0,0.0
1480480555.7,286046952.5,N,0.0,0.0
1480480575.6,286046952.3,N,0.0,0.0
1480480595.4,286046950.1,N,0.0,0.0
1480480615.2,286046952.9,N,0.0,0.0
1480480635.1,286046952.6,N,0.0,0.0
1480480636.0,286046952.6,N,0.0,0.0
1480480655.8,286046952.1,N,0.0,0.0
1480480675.7,286046953.0,N,0.0,0.0
1480480695.5,286046953.1,N,0.0,0.0
1480480715.3,286046950.1,N,0.0,0.0
1480480735.2,286046952.8,N,0.0,0.0
1480480755.0,286046950.2,N,0.0,0.0
1480480755.9,286046950.2,N,0.0,0.0
1480480775.8,286046952.6,N,0.0,0.0
1480480795.6,286046951.1,N,0.0,0.0
1480480815.4,286046950.8,N,0.0,0.0
1480480835.3,286046948.8,N,0.0,0.0
1480480855.1,286046949.1,N,0.0,0.0
1480480875.8,286046949.9,N,0.0,0.0
1480480895.7,286046948.9,N,0.0,0.0
1480480915.5,286046949.3,N,0.0,0.0
1480480935.4,286046946.9,N,0.0,0.0
1480480955.2,286046947.4,N,0.0,0.0
1480480975.0,286046949.6,N,0.0,0.0
1480480975.9,286046949.6,N,0.0,0.0
1480480995.8,286046947.4,N,0.0,0.0
1480481015.6,286046947.1,N,0.0,0.0
1480481035.5,286046949.9,N,0.0,0.0
1480481055.3,286046947.4,N,0.0,0.0
1480481075.1,286046945.5,N,0.0,0.0
1480481095.9,286046948.0,N,0.0,0.0
1480481115.7,286046947.9,N,0.0,0.0
1480481135.5,286046948.3,N,0.0,0.0
1480481155.4,286046945.5,N,0.0,0.0
1480481175.2,286046946.4,N,0.0,0.0
1480481195.1,286046946.5,N,0.0,0.0
1480481196.0,286046946.5,N,0.0,0.0
1480481215.8,286046946.5,N,0.0,0.0
1480481235.6,286046946.3,N,0.0,0.0
1480481255.5,286046946.4,N,0.0,0.0
1480481275.3,286046946.3,N,0.0,0.0
1480481295.2,286046946.3,N,0.0,0.0
1480481315.9,286046943.9,N,0.0,0.0
1480481335.7,286046944.4,N,0.0,0.0
1480481355.6,286046944.9,N,0.0,0.0
1480481375.4,286046944.5,N,0.0,0.0
1480481395.3,286046942.3,N,0.0,0.0
1480481415.1,286046942.7,N,0.0,0.0
1480481416.0,286046942.7,N,0.0,0.0
1480481435.8,286046942.7,N,0.0,0.0
1480481455.7,286046942.6,N,0.0,0.0
1480481475.5,286046943.3,N,0.0,0.0
1480481495.4,286046943.0,N,0.0,0.0
1480481515.2,286046943.1,N,0.0,0.0
1480481535.0,286046942.3,N,0.0,0.0
1480481535.9,286046942.3,N,0.0,0.0
1480481555.8,286046943.3,N,0.0,0.0
1480481575.6,286046941.2,N,0.0,0.0
1480481595.4,286046940.7,N,0.0,0.0
1480481615.3,286046943.0,N,0.0,0.0
1480481635.1,286046941.8,N,0.0,0.0
1480481655.9,286046939.5,N,0.0,0.0
1480481675.7,286046939.1,N,0.0,0.0
1480481695.5,286046939.1,N,0.0,0.0
1480481715.4,286046940.0,N,0.0,0.0
1480481735.2,286046939.9,N,0.0,0.0
1480481755.1,286046940.1,N,0.0,0.0
1480481756.0,286046940.1,N,0.0,0.0
1480481775.8,286046939.4,N,0.0,0.0
1480481795.6,286046939.2,N,0.0,0.0
1480481815.5,286046939.8,N,0.0,0.0
1480481835.3,286046939.9,N,0.0,0.0
1480481855.2,286046939.5,N,0.0,0.0
1480481875.9,286046937.8,N,0.0,0.0
1480481895.7,286046938.1,N,0.0,0.0
1480481915.6,286046938.7,N,0.0,0.0
1480481935.4,286046938.4,N,0.0,0.0
1480481955.3,286046936.2,N,0.0,0.0
1480481975.1,286046938.8,N,0.0,0.0
1480481976.0,286046938.8,N,0.0,0.0
1480481995.8,286046938.3,N,0.0,0.0
